User: anonymous   Login
Location: Unspecified
(0.0000°N, 0.0000°E)
Time: 20:12:43
(UTC+00:00)
Language:

Explorer 7 - Orbit

View from above orbital plane
View from above orbital plane
View from above satellite
View from above satellite

Ground track
Ground track

The orbit data is extracted from the following two-line orbital elements,

1 00022U 59009A   14351.86028211  .00008987  00000-0  75134-3 0  1086
2 00022 050.2825 148.8153 0151365 159.2027 201.5166 14.90647304925033
Epoch (UTC): 17 December 2014 20:38:48
Eccentricity: 0.0151365
inclination: 50.2825°
perigee height: 490 km
apogee height: 701 km
right ascension of ascending node: 148.8153°
argument of perigee: 159.2027°
revolutions per day: 14.90647304
mean anomaly at epoch: 201.5166°
orbit number at epoch: 92503

The dashed part of the orbit path shows where the satellite is in the earth's shadow,  

DLR